Blacksburg, VA

7:59 AM EDT on July 28, 2016 (GMT -0400)
Virginia Tech

Weather History for KBCB - May, 2014

Change the Weather History Date:

Tuesday, May 13, 2014

  Actual Average Record
Temperature  
Mean Temperature 72 °F 58 °F  
Max Temperature 88 °F 71 °F 88 °F (2014)
Min Temperature 56 °F 46 °F 26 °F (1969)
Degree Days  
Heating Degree Days 0 7  
Month to date heating degree days 39 110  
Since 1 July heating degree days 5372 5315  
Cooling Degree Days 7 1  
Month to date cooling degree days 18 2  
Year to date cooling degree days 18 5  
Growing Degree Days 22 (Base 50)    
Moisture  
Dew Point 61 °F    
Average Humidity 68    
Maximum Humidity 100    
Minimum Humidity 35    
Precipitation  
Precipitation 0.00 in 0.13 in 1.45 in (1971)
Month to date precipitation 0.46 1.62  
Year to date precipitation 12.61 14.63  
Snow  
Snow 0.00 in - - ()
Month to date snowfall 0.0  
Since 1 July snowfall 34.4  
Snow Depth 0.00 in    
Sea Level Pressure  
Sea Level Pressure 30.20 in    
Wind  
Wind Speed 2 mph (SSE)    
Max Wind Speed 9 mph    
Max Gust Speed 16 mph    
Visibility 9 miles    
Events      
T = Trace of Precipitation, MM = Missing Value Source: NWS Daily Summary

Daily Weather History Graph

Daily Weather History Graph

Search for Another Location

Airport or City:

Trip Planner

Search our weather history database for the weather conditions in past years. The results will help you decide how hot, cold, wet, or windy it might be!

Date:

Astronomy

May. 13, 2014 Rise Set
Actual Time 6:14 AM EDT 8:21 PM EDT
Civil Twilight 5:45 AM EDT 8:50 PM EDT
Nautical Twilight 5:10 AM EDT 9:26 PM EDT
Astronomical Twilight 4:32 AM EDT 10:04 PM EDT
Moon 7:23 PM EDT (5/13) 5:28 AM EDT (5/13)
Length of Visible Light 15h 04m
Length of Day
14h 06m
Waxing Gibbous, 98% of the Moon is Illuminated
May 13
Waxing Gibbous
May 14
Full
May 21
Last Quarter
May 28
New
Jun 5
First Quarter

Hourly Weather History & Observations

Time (EDT) Temp. Heat Index Dew Point Humidity Pressure Visibility Wind Dir Wind Speed Gust Speed Precip Events Conditions
12:15 AM 64.4 °F - 62.6 °F 94% 30.21 in 10.0 mi Calm Calm - N/A   Clear
12:35 AM 64.4 °F - 62.6 °F 94% 30.21 in 10.0 mi Calm Calm - N/A   Clear
12:55 AM 64.4 °F - 62.6 °F 94% 30.21 in 10.0 mi Calm Calm - N/A   Clear
1:15 AM 64.4 °F - 62.6 °F 94% 30.21 in 10.0 mi Calm Calm - N/A   Clear
1:35 AM 62.6 °F - 62.6 °F 100% 30.21 in 10.0 mi Calm Calm - N/A   Clear
1:55 AM 62.6 °F - 62.6 °F 100% 30.21 in 10.0 mi Calm Calm - N/A   Clear
2:15 AM 62.6 °F - 62.6 °F 100% 30.21 in 10.0 mi Calm Calm - N/A   Clear
2:35 AM 60.8 °F - 60.8 °F 100% 30.21 in 10.0 mi Calm Calm - N/A   Clear
2:55 AM 60.8 °F - 60.8 °F 100% 30.21 in 10.0 mi Calm Calm - N/A   Clear
3:15 AM 60.8 °F - 60.8 °F 100% 30.21 in 7.0 mi Calm Calm - N/A   Clear
3:35 AM 60.8 °F - 60.8 °F 100% 30.20 in 5.0 mi Calm Calm - N/A   Clear
3:55 AM 60.8 °F - 60.8 °F 100% 30.20 in 5.0 mi Calm Calm - N/A   Clear
4:15 AM 59.0 °F - 59.0 °F 100% 30.20 in 5.0 mi Calm Calm - N/A   Clear
4:35 AM 59.0 °F - 59.0 °F 100% 30.19 in 5.0 mi Calm Calm - N/A   Clear
4:55 AM 59.0 °F - 59.0 °F 100% 30.20 in 4.0 mi Calm Calm - N/A   Clear
5:15 AM 57.2 °F - 57.2 °F 100% 30.20 in 3.0 mi Calm Calm - N/A   Clear
5:35 AM 57.2 °F - 57.2 °F 100% 30.20 in 7.0 mi Calm Calm - N/A   Clear
5:55 AM 57.2 °F - 57.2 °F 100% 30.20 in 2.0 mi Calm Calm - N/A   Clear
6:15 AM 57.2 °F - 57.2 °F 100% 30.21 in 7.0 mi Calm Calm - N/A   Clear
6:35 AM 57.2 °F - 57.2 °F 100% 30.22 in 3.0 mi Calm Calm - N/A   Clear
6:55 AM 59.0 °F - 59.0 °F 100% 30.22 in 3.0 mi Calm Calm - N/A   Clear
7:15 AM 60.8 °F - 60.8 °F 100% 30.23 in 4.0 mi Calm Calm - N/A   Clear
7:35 AM 62.6 °F - 62.6 °F 100% 30.23 in 5.0 mi Calm Calm - N/A   Mist
7:55 AM 64.4 °F - 64.4 °F 100% 30.24 in 7.0 mi Calm Calm - N/A   Clear
9:15 AM 71.6 °F - 66.2 °F 83% 30.24 in 10.0 mi Calm Calm - N/A   Clear
9:35 AM 73.4 °F - 66.2 °F 78% 30.24 in 10.0 mi Calm Calm - N/A   Clear
9:55 AM 75.2 °F - 66.2 °F 73% 30.24 in 10.0 mi Calm Calm - N/A   Clear
10:15 AM 77.0 °F - 68.0 °F 74% 30.24 in 10.0 mi Calm Calm - N/A   Clear
11:55 AM 82.4 °F 84.6 °F 66.2 °F 58% 30.23 in 10.0 mi Calm Calm - N/A   Clear
12:35 PM 84.2 °F 86.6 °F 66.2 °F 55% 30.22 in 10.0 mi NW 3.5 mph - N/A   Clear
1:15 PM 84.2 °F 86.6 °F 66.2 °F 55% 30.22 in 10.0 mi Calm Calm - N/A   Clear
1:35 PM 84.2 °F 84.4 °F 60.8 °F 45% 30.21 in 10.0 mi South 4.6 mph - N/A   Clear
1:55 PM 84.2 °F 85.0 °F 62.6 °F 48% 30.20 in 10.0 mi SSW 5.8 mph - N/A   Clear
2:15 PM 84.2 °F 85.0 °F 62.6 °F 48% 30.20 in 10.0 mi Calm Calm - N/A   Clear
2:35 PM 86.0 °F 86.1 °F 60.8 °F 43% 30.18 in 10.0 mi SSW 3.5 mph - N/A   Clear
2:55 PM 86.0 °F 85.4 °F 59.0 °F 40% 30.17 in 10.0 mi Calm Calm - N/A   Clear
3:15 PM 86.0 °F 86.1 °F 60.8 °F 43% 30.17 in 10.0 mi SSE 8.1 mph - N/A   Clear
3:35 PM 84.2 °F 85.0 °F 62.6 °F 48% 30.17 in 10.0 mi SSE 8.1 mph - N/A   Scattered Clouds
3:55 PM 87.8 °F 88.5 °F 62.6 °F 43% 30.16 in 10.0 mi South 6.9 mph - N/A   Scattered Clouds
4:15 PM 84.2 °F 85.6 °F 64.4 °F 51% 30.16 in 10.0 mi East 11.5 mph - N/A   Scattered Clouds
4:35 PM 82.4 °F 83.9 °F 64.4 °F 54% 30.15 in 10.0 mi ESE 12.7 mph - N/A   Scattered Clouds
4:55 PM 82.4 °F 83.9 °F 64.4 °F 54% 30.15 in 10.0 mi ESE 9.2 mph - N/A   Scattered Clouds
5:15 PM 82.4 °F 83.9 °F 64.4 °F 54% 30.14 in 10.0 mi East 8.1 mph - N/A   Scattered Clouds
5:35 PM 84.2 °F 85.0 °F 62.6 °F 48% 30.14 in 7.0 mi East 4.6 mph 16.1 mph N/A   Scattered Clouds
5:55 PM 86.0 °F 84.5 °F 55.4 °F 35% 30.15 in 10.0 mi South 6.9 mph - N/A   Clear
6:15 PM 86.0 °F 84.9 °F 57.2 °F 37% 30.15 in 10.0 mi SSW 5.8 mph - N/A   Clear
6:35 PM 84.2 °F 83.5 °F 57.2 °F 40% 30.15 in 10.0 mi South 9.2 mph - N/A   Scattered Clouds
6:55 PM 84.2 °F 83.5 °F 57.2 °F 40% 30.16 in 10.0 mi South 8.1 mph - N/A   Clear
7:15 PM 82.4 °F 82.0 °F 57.2 °F 42% 30.16 in 10.0 mi South 6.9 mph - N/A   Clear
7:35 PM 80.6 °F 80.8 °F 57.2 °F 45% 30.16 in 10.0 mi South 3.5 mph - N/A   Clear
8:15 PM 77.0 °F - 59.0 °F 54% 30.18 in 10.0 mi South 3.5 mph - N/A   Clear
8:35 PM 75.2 °F - 59.0 °F 57% 30.19 in 10.0 mi Calm Calm - N/A   Clear
8:55 PM 71.6 °F - 60.8 °F 69% 30.20 in 10.0 mi Calm Calm - N/A   Clear
9:15 PM 69.8 °F - 60.8 °F 73% 30.20 in 10.0 mi Calm Calm - N/A   Clear
9:35 PM 69.8 °F - 60.8 °F 73% 30.21 in 10.0 mi Calm Calm - N/A   Clear
9:55 PM 69.8 °F - 60.8 °F 73% 30.21 in 10.0 mi Calm Calm - N/A   Clear
10:15 PM 71.6 °F - 60.8 °F 69% 30.22 in 10.0 mi South 3.5 mph - N/A   Clear
10:35 PM 71.6 °F - 60.8 °F 69% 30.22 in 10.0 mi South 3.5 mph - N/A   Clear
10:55 PM 71.6 °F - 60.8 °F 69% 30.22 in 10.0 mi Calm Calm - N/A   Clear
11:15 PM 71.6 °F - 60.8 °F 69% 30.23 in 10.0 mi Calm Calm - N/A   Clear
11:35 PM 71.6 °F - 60.8 °F 69% 30.23 in 10.0 mi Calm Calm - N/A   Clear
11:55 PM 66.2 °F - 62.6 °F 88% 30.22 in 10.0 mi Calm Calm - N/A   Clear